Weather Roundup
Issued by NWS

Home | Current Version | Previous Version | Graphics & Text | Print | Product List | Glossary Off
Versions: 1 2 3 4 5 6 7 8 9 10 11 12 13 14 15 16 17 18 19 20 21 22 23 24 25 26 27 28 29 30 31 32 33 34 35 36 37 38 39 40 41 42 43 44 45 46 47 48 49 50

761
NZUS93 KARX 250159
HRRWXR

CURRENT HOURLY OBSERVATIONS ACROSS
MUCH OF THE UPPER MISSISSIPPI VALLEY
NATIONAL WEATHER SERVICE LA CROSSE WI
900 PM CDT FRI MAR 24 2017


...SOUTHEAST MINNESOTA...


CITY           SKY/WX    TMP DP  RH WIND       PRES   REMARKS
ROCHESTER      CLOUDY    39  37  92 NE13      30.10S WCI  31
ROCHESTER/MAYO CLOUDY    40  39  95 NE8       30.12S WCI  35
WINONA         CLOUDY    41  36  81 NE5       30.15R
AUSTIN         CLOUDY    39  37  93 NE14G21   30.08F WCI  31
ALBERT LEA     CLOUDY    39  39 100 NE9       30.09S WCI  33
DODGE CENTER   CLOUDY    39  37  93 NE8       30.11F FOG     WCI  34
PRESTON        LGT RAIN  38  36  93 NE12      30.09S WCI  30
OWATONNA       CLOUDY    41  36  81 NE9       30.13R
FARIBAULT      CLOUDY    41  37  87 N10G17    30.14S
$$

...ELSEWHERE IN MINNESOTA...


CITY           SKY/WX    TMP DP  RH WIND       PRES   REMARKS
MINNEAPOLIS    CLOUDY    40  33  76 NE13G25   30.18R WCI  32
INTNL FALLS    CLOUDY    36  26  67 NE5       30.23R WCI  32
DULUTH         LGT SNOW  34  32  92 E9        30.21S FOG     WCI  27
RED WING       CLOUDY    43  34  70 NE6       30.15R
REDWOOD FALLS  CLOUDY    39  32  76 NE10      30.16R WCI  32
MANKATO        CLOUDY    40  36  86 N14       30.14R WCI  32
WORTHINGTON    CLOUDY    36  35  96 NE20      30.11R FOG     WCI  25
FAIRMONT       CLOUDY    40  37  89 N12       30.11S WCI  33
$$

...SOUTHWEST WISCONSIN...


CITY           SKY/WX    TMP DP  RH WIND       PRES   REMARKS
LA CROSSE      LGT RAIN  42  38  85 NE7       30.13R
PRAIRIE DU CHI LGT RAIN  42  39  89 CALM      30.07R
BOSCOBEL       LGT RAIN  42  39  89 NE6       30.09R
LONE ROCK      NOT AVBL
PLATTEVILLE    CLOUDY    44  42  94 NE14      30.03S
FORT MC COY    DRIZZLE   39  37  94 NE8       30.13R WCI  33
CAMP DOUGLAS   LGT RAIN  37  37 100 NE5       30.12R WCI  34
MAUSTON-NEW LI RAIN      38  37  97 CALM      30.11R
VIROQUA        CLOUDY    37  37  98 NE12      30.09R WCI  30
WIS DELLS      CLOUDY    37  35  95 NE8       30.09S WCI  30
$$

...ELSEWHERE IN WISCONSIN...


CITY           SKY/WX    TMP DP  RH WIND       PRES   REMARKS
MILWAUKEE      CLOUDY    38  34  85 NE16      30.09R WCI  29
MADISON        CLOUDY    38  35  89 N14       30.08R WCI  30
GREEN BAY      LGT RAIN  36  36 100 NE14      30.14S FOG     WCI  27
EAU CLAIRE     NOT AVBL
BLACK RVR FLS  CLOUDY    40  39  98 NE6       30.12R
MEDFORD        CLOUDY    35  33  90 NE9       30.14R WCI  28
WAUSAU         CLOUDY    37  34  89 NE9       30.13R WCI  30
WIS RAPIDS     LGT RAIN  38  37  97 NE8       30.14R WCI  32
MARSHFIELD     CLOUDY    37  35  92 NE6       30.12R WCI  32
RICE LAKE      CLOUDY    37  33  85 CALM      30.19R
$$

...NORTHEAST IOWA...


CITY           SKY/WX    TMP DP  RH WIND       PRES   REMARKS
WATERLOO       LGT RAIN  42  39  89 NE14      30.05R
DUBUQUE        CLOUDY    46  43  89 NE14      30.01S FOG
DECORAH        HVY RAIN  39  39 100 NE10G20   30.07R WCI  32
MASON CITY     CLOUDY    40  37  89 NE18      30.08S WCI  31
CHARLES CITY   CLOUDY    41  41 100 NE15      30.06F
OELWEIN        LGT RAIN  41  41 100 NE14G20   30.05R
$$

...ELSEWHERE IN IOWA...


CITY           SKY/WX    TMP DP  RH WIND       PRES   REMARKS
DES MOINES     DRIZZLE   46  43  89 NE20      29.96F FOG
IOWA CITY      CLOUDY    55  53  93 N8        29.98S FOG
FORT DODGE     CLOUDY    39  36  87 NE12      30.05S WCI  32
MARSHALLTOWN   CLOUDY    43  42  97 NE17G23   30.00F
CEDAR RAPIDS   CLOUDY    49  49 100 N12       29.98R FOG
$$

...NORTHERN ILLINOIS...


CITY           SKY/WX    TMP DP  RH WIND       PRES   REMARKS
CHICAGO-OHARE  CLOUDY    43  36  76 NE15      30.06R
CHICAGO-MIDWAY LGT RAIN  44  40  85 N12G23    30.06R FOG
MOLINE         CLOUDY    57  54  89 NE6       29.97F
ROCKFORD       LGT RAIN  46  40  79 NE12      30.09R
PEORIA         CLOUDY    62  53  72 N3        29.98F
$$

NOTE: "FAIR" INDICATES FEW OR NO CLOUDS BELOW 12,000 FEET WITH NO
SIGNIFICANT WEATHER AND/OR OBSTRUCTIONS TO VISIBILITY. WIND
SPEEDS ARE IN MILES-PER-HOUR.




USA.gov is the U.S. government's official web portal to all federal, state and local government web resources and services.